• Join FlightAware (Why Join?)
  • Login
  • US Flag 
03:55PM EDT


 

Airport Tracker/Info


-or-


 

Live Flight TrackerFlight Track Log ✈ KAP2826 ✈ 03-May-2013 ✈ KHYA - KACK

Flight Track Log - Related Links

Times and Time Zones

All times are in EDT time to prevent confusion due to time zone crossing. See the KAP2826 flight status page for this flight to view local times or setup timezone preferences in your user account.

Time Position Orientation Groundspeed Altitude Reporting Facility
EDT Latitude Longitude Course Direction KTS MPH feet Rate Location/Type
03:34PM 41.5407 -70.2037 159° South  Level FlightAware Approximate
03:35PM 41.5197 -70.1932 159° South  Level FlightAware Approximate
03:36PM 41.4987 -70.1827 159° South  Level FlightAware Approximate
03:37PM 41.4778 -70.1722 159° South  Level FlightAware Approximate
03:38PM 41.4570 -70.1609 156° South  Level FlightAware Approximate
03:39PM 41.4366 -70.1486 156° South  Level FlightAware Approximate
03:40PM 41.4162 -70.1364 156° South  Level FlightAware Approximate
03:41PM 41.3957 -70.1241 156° South  Level FlightAware Approximate
03:42PM 41.3751 -70.1125 159° South  Level FlightAware Approximate
03:43PM 41.3541 -70.1020 159° South  Level FlightAware Approximate
03:44PM 41.3331 -70.0916 159° South  Level FlightAware Approximate
03:45PM 41.3121 -70.0811 159° South  Level FlightAware Approximate
03:46PM 41.2912 -70.0706 159° South  Level FlightAware Approximate
03:47PM 41.2702 -70.0601 159° South  Level FlightAware Approximate
03:48PM 41.2500 -70.0500 159° South  Level FlightAware Approximate
03:49PM 41.2531 -70.0603 159° South  Level Estimated
03:50PM 41.2531 -70.0603 159° South  Level Estimated
03:51PM 41.2531 -70.0603 159° South  Level Estimated
03:52PM 41.2531 -70.0603 159° South  Level Estimated
03:53PM 41.2531 -70.0603 159° South  Level Estimated